| time (UTC) | temp F | wind direction | speed MPH | gust MPH | rain 1hr in | rain 24hr in | rain mn in | humidity % | barometer mb |
| 20260504190006 | 52 | 27 | 2.0 | 8.0 | 0.00 | 0.08 | 0.08 | 50 | 1003.0 |
| 20260504184506 | 53 | 136 | 3.0 | 11.0 | 0.00 | 0.08 | 0.08 | 48 | 1002.9 |
| 20260504183004 | 53 | 330 | 1.0 | 10.0 | 0.00 | 0.08 | 0.08 | 46 | 1003.0 |
| 20260504181504 | 54 | 50 | 1.0 | 9.0 | 0.00 | 0.08 | 0.08 | 44 | 1003.1 |
| 20260504180003 | 55 | 58 | 3.0 | 12.0 | 0.00 | 0.08 | 0.08 | 42 | 1003.0 |
| 20260504174502 | 55 | 19 | 3.0 | 16.0 | 0.00 | 0.08 | 0.08 | 41 | 1003.0 |
| 20260504173004 | 56 | 41 | 2.0 | 13.0 | 0.00 | 0.08 | 0.08 | 41 | 1003.1 |
| 20260504171501 | 56 | 150 | 1.0 | 15.0 | 0.00 | 0.08 | 0.08 | 42 | 1003.0 |
| 20260504170104 | 57 | 151 | 2.0 | 10.0 | 0.00 | 0.08 | 0.08 | 42 | 1002.9 |
| 20260504160105 | 58 | 80 | 6.0 | 16.0 | 0.00 | 0.08 | 0.08 | 37 | 1002.7 |
| 20260504081523 | 52 | 122 | 2.0 | 10.0 | 0.00 | 0.09 | 0.08 | 84 | 1002.0 |
| 20260504044542 | 46 | 28 | 1.0 | 4.0 | 0.02 | 0.13 | 0.08 | 98 | 1002.6 |
| 20260504043043 | 46 | 336 | 2.0 | 7.0 | 0.02 | 0.12 | 0.07 | 98 | 1002.8 |
| 20260504041538 | 46 | 36 | 1.0 | 7.0 | 0.02 | 0.12 | 0.07 | 98 | 1002.9 |
| 20260504040037 | 45 | 74 | 0.0 | 4.0 | 0.02 | 0.11 | 0.06 | 98 | 1003.0 |
| 20260504034537 | 45 | 353 | 1.0 | 3.0 | 0.04 | 0.11 | 0.06 | 98 | 1003.0 |
| 20260504033035 | 45 | 323 | 3.0 | 6.0 | 0.04 | 0.10 | 0.06 | 98 | 1003.0 |
| 20260504031534 | 45 | 340 | 2.0 | 5.0 | 0.04 | 0.09 | 0.05 | 98 | 1003.2 |
| 20260504030032 | 45 | 346 | 0.0 | 2.0 | 0.04 | 0.09 | 0.04 | 97 | 1003.4 |
| 20260504024533 | 45 | 346 | 0.0 | 0.0 | 0.02 | 0.07 | 0.02 | 97 | 1003.6 |
| 20260504023026 | 45 | 346 | 0.0 | 1.0 | 0.02 | 0.06 | 0.02 | 97 | 1003.7 |
| 20260504021524 | 45 | 346 | 0.0 | 1.0 | 0.01 | 0.06 | 0.01 | 97 | 1003.9 |
| 20260504020025 | 45 | 314 | 0.0 | 1.0 | 0.00 | 0.05 | 0.00 | 98 | 1004.0 |
| 20260504014532 | 45 | 314 | 0.0 | 0.0 | 0.00 | 0.05 | 0.00 | 97 | 1004.1 |
| 20260504013032 | 45 | 314 | 0.0 | 0.0 | 0.00 | 0.05 | 0.00 | 97 | 1004.1 |
| 20260504011521 | 45 | 314 | 0.0 | 0.0 | 0.00 | 0.05 | 0.00 | 97 | 1004.2 |
| 20260504010019 | 45 | 314 | 0.0 | 0.0 | 0.00 | 0.05 | 0.00 | 97 | 1004.3 |
| 20260504004517 | 46 | 314 | 0.0 | 0.0 | 0.00 | 0.05 | 0.00 | 97 | 1004.4 |
| 20260504003012 | 46 | 314 | 0.0 | 0.0 | 0.00 | 0.05 | 0.00 | 97 | 1004.6 |
| 20260504001511 | 46 | 314 | 0.0 | 0.0 | 0.00 | 0.05 | 0.00 | 97 | 1004.8 |
| 20260504000009 | 46 | 314 | 0.0 | 0.0 | 0.00 | 0.05 | 0.00 | 97 | 1005.0 |
| 20260503234508 | 46 | 314 | 0.0 | 0.0 | 0.00 | 0.05 | 0.00 | 97 | 1005.3 |
| 20260503233009 | 46 | 314 | 0.0 | 0.0 | 0.00 | 0.05 | 0.00 | 97 | 1005.5 |
| 20260503231505 | 46 | 314 | 0.0 | 0.0 | 0.00 | 0.05 | 0.00 | 97 | 1005.5 |
| 20260503230004 | 46 | 314 | 0.0 | 0.0 | 0.00 | 0.05 | 0.00 | 97 | 1005.6 |
| 20260503224501 | 46 | 314 | 0.0 | 0.0 | 0.00 | 0.05 | 0.00 | 97 | 1005.7 |
| 20260503223100 | 46 | 314 | 0.0 | 0.0 | 0.00 | 0.05 | 0.00 | 97 | 1005.9 |
| 20260503221604 | 46 | 314 | 0.0 | 0.0 | 0.00 | 0.05 | 0.00 | 97 | 1005.9 |
| 20260503220056 | 46 | 314 | 0.0 | 0.0 | 0.00 | 0.05 | 0.05 | 97 | 1006.0 |
| 20260503214559 | 46 | 314 | 0.0 | 0.0 | 0.00 | 0.05 | 0.05 | 97 | 1006.1 |
| 20260503213054 | 46 | 314 | 0.0 | 0.0 | 0.00 | 0.05 | 0.05 | 97 | 1006.4 |
| 20260503211553 | 46 | 314 | 0.0 | 0.0 | 0.00 | 0.05 | 0.05 | 97 | 1006.3 |
| 20260503210052 | 46 | 314 | 0.0 | 0.0 | 0.00 | 0.05 | 0.05 | 97 | 1006.4 |
| 20260503204552 | 46 | 314 | 0.0 | 0.0 | 0.00 | 0.05 | 0.05 | 97 | 1006.5 |
| 20260503203105 | 46 | 314 | 0.0 | 0.0 | 0.00 | 0.05 | 0.05 | 97 | 1006.7 |
| 20260503201550 | 45 | 314 | 0.0 | 0.0 | 0.00 | 0.05 | 0.05 | 97 | 1006.8 |
| 20260503200049 | 45 | 314 | 0.0 | 0.0 | 0.00 | 0.05 | 0.05 | 97 | 1007.0 |
| 20260503194549 | 45 | 314 | 0.0 | 0.0 | 0.00 | 0.05 | 0.05 | 97 | 1007.1 |
| 20260503193047 | 45 | 314 | 0.0 | 0.0 | 0.00 | 0.05 | 0.05 | 97 | 1007.1 |
| 20260503191549 | 45 | 314 | 0.0 | 0.0 | 0.00 | 0.05 | 0.05 | 97 | 1007.1 |